Regional Weather Roundup
Issued by NWS State College, PA

Home | Current Version | Previous Version | Graphics & Text | Print | Product List | Glossary Off
Versions: 1 2 3 4 5 6 7 8 9 10 11 12 13 14 15 16 17 18 19 20 21 22 23 24 25 26 27 28 29 30 31 32 33 34 35 36 37 38 39 40 41 42 43 44 45 46 47 48 49 50

000
ASUS41 KCTP 301003
RWRCTP

REGIONAL WEATHER ROUNDUP
NATIONAL WEATHER SERVICE STATE COLLEGE PA
600 AM EDT MON MAY 30 2016

Note: "fair" indicates few or no clouds below 12,000 feet with no
significant weather and/or obstructions to visibility.

* = STATION THAT DOES NOT REPORT PRECIPITATION /E.G. RAIN...SNOW...ETC/
    THUNDER OR FOG.

PAZ002>004-007>009-013>016-020>023-029>032-301100-
WESTERN PENNSYLVANIA

CITY           SKY/WX    TMP DP  RH WIND       PRES   REMARKS
ERIE           CLEAR     67  61  81 SW10      29.98R
MEADVILLE      MOCLDY    62  61  96 SW5       30.02R
FRANKLIN*      CLEAR     61  57  88 SW5       30.05R
NEW CASTLE     FAIR      60  59  96 CALM      30.02S FOG
BEAVER COUNTY  NOT AVBL
BUTLER*        CLOUDY   N/A N/A N/A CALM      30.05R
PITTSBURGH INT CLOUDY    63  59  87 CALM      30.02R FOG
PITTSBURGH     PTCLDY    61  58  90 S7        30.02R FOG
INDIANA*       CLEAR     59  59 100 CALM      30.07R
LATROBE        PTCLDY    57  57 100 CALM      30.04R FOG
WASHINGTON CO*   N/A     55  54  94 CALM      30.03S VSB 3/4
$$

PAZ004>006-010>012-017>019-024>028-033>037-041-042-045-046-049>053-301100-
CENTRAL PENNSYLVANIA

CITY           SKY/WX    TMP DP  RH WIND       PRES   REMARKS
BRADFORD       PTCLDY    59  56  89 SW3       30.04R
DUBOIS         CLOUDY    57  55  93 S3        30.04R FOG
CLEARFIELD     FOG       59  57  93 CALM      30.05R VSB 1/4
JOHNSTOWN      MOCLDY    59  54  83 SW7       30.06R
ALTOONA        CLOUDY    61  58  90 CALM      30.05R
STATE COLLEGE  CLEAR     61  57  88 SW5       30.03R
WILLIAMSPORT   CLOUDY    66  60  81 E6        29.99S
SELINSGROVE    MOCLDY    64  62  93 CALM      30.02R
FT INDIANTOWN  LGT RAIN  64  64 100 CALM      30.02R FOG
CAPITAL CITY   LGT RAIN  65  62  90 CALM      30.02R
HARRISBURG     LGT RAIN  65  62  90 CALM      30.01R
YORK           CLOUDY    63  62  97 NW3       30.02R
$$

PAZ038>040-043-044-047-048-054-055-060>062-067>071-301100-
EASTERN PENNSYLVANIA

CITY           SKY/WX    TMP DP  RH WIND       PRES   REMARKS
SCRANTON       CLOUDY    63  62  97 CALM      30.01S
MOUNT POCONO   LGT RAIN  60  32  34 N3        30.04S
ALLENTOWN      CLOUDY    66  64  93 NE3       30.01R
QUAKERTOWN*    CLOUDY    66  66 100 CALM      30.02R
READING        CLOUDY    67  64  90 W3        30.01R
LANCASTER      CLOUDY    65  64  97 NW6       30.02R
COATESVILLE    PTSUNNY   66  64  94 CALM      30.03R
POTTSTOWN      LGT RAIN  66  66 100 CALM      30.03R FOG
BLUE BELL      CLOUDY    66  66 100 CALM      30.00R
DOYLESTOWN     CLOUDY    66  66 100 CALM      30.00R
WILLOW GROVE   NOT AVBL
NORTH PHILA    CLOUDY    69  67  93 CALM      30.01R
PHILADELPHIA   CLOUDY    71  68  90 W5        30.00S
$$




USA.gov is the U.S. government's official web portal to all federal, state and local government web resources and services.